DECAYED

CZ-2F R/B, 63633 (Decayed)

Orbit data source: Space-Track

CZ-2F R/B, 63633 was space debris in LEO originally from a launch on Thu, 24 Apr 2025 UTC launched from the Jiuquan Satellite Launch Center, China (JSC). Debris objects in space refer to the collection of defunct objects orbiting the Earth. Examples of debris include non-operational satellites, rocket bodies, and fragments generated from explosions, collisions, or faulty payload assembly.

Not visible in the next 10 days
Identifier
63633, 2025-082B
Orbit
Decayed
Country
Flag of CNCN / PRC
Related business
Manufacturer
CALT?
Mission
Decayed spacecraft
Bus & Motor
CZ-2F, Unknown motor
Mass
5,500 kg wet, 5,500 kg dry
Launch date (UTC)
2025-04-24 (6 months ago)
Launch vehicle
Unknown
Launch site
Jiuquan Satellite Launch Center, China (JSC)
Object type
Payload
Rocket body
Debris
Shape & HBR
Unknown shape, 8.0 m
Radar Cross Section
Large (>1 m²)

Expand to show TLE details & history
Last TLE update: 6 months ago

TLE from 6 months ago
0 CZ-2F R/B
1 63633U 25082B   25122.79872868  .12669141  78614-5  34580-3 0  9999
2 63633  41.4570 292.5240 0026111 206.6050 247.2406 16.42622166  1314
Epoch: 2025-05-02T19:10Z
TLE epoch observation values (Epoch: 2025-05-02T19:10:10.157Z)
Latitude
41.52272°
Longitude
-121.20485°
Altitude
168.009 km
Speed
7.808 km/s
True Right ascension
01h 49m 09s
True Declination
41° 20' 12"
Sunlit
Object was in daylight at epoch
Visualization orbit readout
Latitude
Unknown
Longitude
Unknown
Altitude
Unknown
Speed
Unknown
Apparent Right ascension
Unknown
Apparent Declination
Unknown
Sunlit
N/A
Visualization observer readout
Local Sidereal Time
13:09:58
Azimuth
Unknown
Elevation
Unknown
Doppler factor
Unknown
Orbital elements
Apogee altitude
178.223 km
Perigee altitude
144.074 km
Semi-major axis
6,539.286 km
Eccentricity
0.00261
Inclination
41.457°
RAAN
292.524°
Arg. of periapsis
206.605°
True anomaly
246.96504°
Mean anomaly
247.2406°
Eccentric anomaly
247.10278°
Mean motion
4.10438 °/min
Orbital period
87.71 mins
BSTAR
0.0003458
Loading maneuver chart data...
Computing Atmospheric mass density...
Loading historical data...
Loading historical data...
Loading historical data...
Loading historical data...
Loading historical data...
Loading historical data...
Loading historical data...
Other satellites on launch #82 in the year 2025 (2025-04-24 UTC)

Documentation

Showing up to 5 results
|